Time,TemperatureF,DewpointF,PressureIn,WindDirection,WindDirectionDegrees,WindSpeedMPH,WindSpeedGustMPH,Humidity,HourlyPrecipIn,Conditions,Clouds,dailyrainin,SoftwareType,DateUTC
2013-06-19 00:01:00,69.9,65.2,29.94,SW,231,0.0,0.0,85,0.00,,,0.00,WUHU216DAVISVP2,2013-06-19 05:01:00,
2013-06-19 00:06:00,69.6,64.9,29.94,SW,231,0.0,0.0,85,0.00,,,0.00,WUHU216DAVISVP2,2013-06-19 05:06:00,
2013-06-19 00:11:00,69.4,64.7,29.94,SW,231,0.0,0.0,85,0.00,,,0.00,WUHU216DAVISVP2,2013-06-19 05:11:00,
2013-06-19 00:16:00,69.3,64.6,29.95,ENE,72,2.0,2.0,85,0.00,,,0.00,WUHU216DAVISVP2,2013-06-19 05:16:00,
2013-06-19 00:21:00,69.0,64.7,29.95,ENE,60,0.0,3.0,86,0.00,,,0.00,WUHU216DAVISVP2,2013-06-19 05:21:00,
2013-06-19 00:26:00,69.0,64.7,29.94,ENE,60,0.0,3.0,86,0.00,,,0.00,WUHU216DAVISVP2,2013-06-19 05:26:00,
2013-06-19 00:31:00,69.0,64.7,29.95,ENE,60,3.0,3.0,86,0.00,,,0.00,WUHU216DAVISVP2,2013-06-19 05:31:00,
2013-06-19 00:36:00,69.0,64.7,29.95,SW,235,1.0,4.0,86,0.00,,,0.00,WUHU216DAVISVP2,2013-06-19 05:36:00,
2013-06-19 00:41:00,68.8,64.5,29.95,WSW,238,0.0,4.0,86,0.00,,,0.00,WUHU216DAVISVP2,2013-06-19 05:41:00,
2013-06-19 00:46:00,68.7,64.7,29.95,ENE,75,0.0,2.0,87,0.00,,,0.00,WUHU216DAVISVP2,2013-06-19 05:46:00,
2013-06-19 00:51:00,68.5,64.8,29.95,NNE,13,0.0,2.0,88,0.00,,,0.00,WUHU216DAVISVP2,2013-06-19 05:51:00,
2013-06-19 00:56:00,68.2,64.8,29.96,ENE,73,3.0,4.0,89,0.00,,,0.00,WUHU216DAVISVP2,2013-06-19 05:56:00,
2013-06-19 01:01:00,67.9,64.5,29.96,NE,56,3.0,4.0,89,0.00,,,0.00,WUHU216DAVISVP2,2013-06-19 06:01:00,
2013-06-19 01:06:00,67.7,64.3,29.96,ENE,67,0.0,3.0,89,0.00,,,0.00,WUHU216DAVISVP2,2013-06-19 06:06:00,
2013-06-19 01:11:00,67.6,64.2,29.97,ENE,67,0.0,3.0,89,0.00,,,0.00,WUHU216DAVISVP2,2013-06-19 06:11:00,
2013-06-19 01:16:00,67.5,64.1,29.97,ENE,67,0.0,0.0,89,0.00,,,0.00,WUHU216DAVISVP2,2013-06-19 06:16:00,
2013-06-19 01:21:00,67.5,64.4,29.97,NE,56,0.0,0.0,90,0.00,,,0.00,WUHU216DAVISVP2,2013-06-19 06:21:00,
2013-06-19 01:26:00,67.4,64.3,29.97,NE,54,1.0,1.0,90,0.00,,,0.00,WUHU216DAVISVP2,2013-06-19 06:26:00,
2013-06-19 01:31:00,67.4,64.3,29.97,ENE,72,0.0,3.0,90,0.00,,,0.00,WUHU216DAVISVP2,2013-06-19 06:31:00,
2013-06-19 01:36:00,67.4,64.0,29.97,NNE,22,0.0,4.0,89,0.00,,,0.00,WUHU216DAVISVP2,2013-06-19 06:36:00,
2013-06-19 01:41:00,67.4,64.3,29.97,ENE,68,2.0,4.0,90,0.00,,,0.00,WUHU216DAVISVP2,2013-06-19 06:41:00,
2013-06-19 01:46:00,67.3,64.2,29.97,East,84,2.0,3.0,90,0.00,,,0.00,WUHU216DAVISVP2,2013-06-19 06:46:00,
2013-06-19 01:51:00,67.3,64.2,29.97,ENE,72,2.0,3.0,90,0.00,,,0.00,WUHU216DAVISVP2,2013-06-19 06:51:00,
2013-06-19 01:56:00,67.1,64.1,29.97,NE,56,4.0,4.0,90,0.00,,,0.00,WUHU216DAVISVP2,2013-06-19 06:56:00,
2013-06-19 02:01:00,67.0,64.3,29.96,ENE,72,2.0,4.0,91,0.00,,,0.00,WUHU216DAVISVP2,2013-06-19 07:01:00,
2013-06-19 02:06:00,66.9,64.2,29.96,ENE,68,3.0,5.0,91,0.00,,,0.00,WUHU216DAVISVP2,2013-06-19 07:06:00,
2013-06-19 02:11:00,66.8,64.1,29.96,ENE,71,3.0,5.0,91,0.00,,,0.00,WUHU216DAVISVP2,2013-06-19 07:11:00,
2013-06-19 02:16:00,66.7,64.0,29.96,ENE,63,3.0,5.0,91,0.00,,,0.00,WUHU216DAVISVP2,2013-06-19 07:16:00,
2013-06-19 02:21:00,66.6,64.2,29.96,ENE,73,2.0,5.0,92,0.00,,,0.00,WUHU216DAVISVP2,2013-06-19 07:21:00,
2013-06-19 02:26:00,66.6,64.2,29.96,ENE,69,4.0,5.0,92,0.00,,,0.00,WUHU216DAVISVP2,2013-06-19 07:26:00,
2013-06-19 02:31:00,66.6,64.2,29.96,NE,53,3.0,5.0,92,0.00,,,0.00,WUHU216DAVISVP2,2013-06-19 07:31:00,
2013-06-19 02:36:00,66.5,64.1,29.96,ENE,75,3.0,5.0,92,0.00,,,0.00,WUHU216DAVISVP2,2013-06-19 07:36:00,
2013-06-19 02:41:00,66.4,64.0,29.96,ENE,67,5.0,5.0,92,0.00,,,0.00,WUHU216DAVISVP2,2013-06-19 07:41:00,
2013-06-19 02:46:00,66.4,64.3,29.96,ENE,68,2.0,5.0,93,0.00,,,0.00,WUHU216DAVISVP2,2013-06-19 07:46:00,
2013-06-19 02:51:00,66.3,64.2,29.96,ENE,72,1.0,4.0,93,0.00,,,0.00,WUHU216DAVISVP2,2013-06-19 07:51:00,
2013-06-19 02:56:00,66.2,64.1,29.96,NE,51,2.0,2.0,93,0.00,,,0.00,WUHU216DAVISVP2,2013-06-19 07:56:00,
2013-06-19 03:01:00,66.2,64.1,29.96,ENE,58,0.0,3.0,93,0.00,,,0.00,WUHU216DAVISVP2,2013-06-19 08:01:00,
2013-06-19 03:06:00,66.1,64.0,29.96,ENE,58,0.0,3.0,93,0.00,,,0.00,WUHU216DAVISVP2,2013-06-19 08:06:00,
2013-06-19 03:11:00,66.0,63.9,29.96,ESE,119,0.0,1.0,93,0.00,,,0.00,WUHU216DAVISVP2,2013-06-19 08:11:00,
2013-06-19 03:16:00,65.8,63.7,29.96,ESE,119,0.0,0.0,93,0.00,,,0.00,WUHU216DAVISVP2,2013-06-19 08:16:00,
2013-06-19 03:21:00,65.7,63.9,29.97,ENE,66,2.0,2.0,94,0.00,,,0.00,WUHU216DAVISVP2,2013-06-19 08:21:00,
2013-06-19 03:26:00,65.8,64.0,29.96,ENE,65,0.0,2.0,94,0.00,,,0.00,WUHU216DAVISVP2,2013-06-19 08:26:00,
2013-06-19 03:31:00,65.7,63.9,29.97,ENE,65,1.0,2.0,94,0.00,,,0.00,WUHU216DAVISVP2,2013-06-19 08:31:00,
2013-06-19 03:36:00,65.7,63.9,29.97,ENE,64,0.0,2.0,94,0.00,,,0.00,WUHU216DAVISVP2,2013-06-19 08:36:00,
2013-06-19 03:41:00,65.6,63.8,29.97,ENE,63,0.0,2.0,94,0.00,,,0.00,WUHU216DAVISVP2,2013-06-19 08:41:00,
2013-06-19 03:46:00,65.4,63.6,29.97,NE,48,0.0,1.0,94,0.00,,,0.00,WUHU216DAVISVP2,2013-06-19 08:46:00,
2013-06-19 03:51:00,65.2,63.4,29.97,NE,49,0.0,1.0,94,0.00,,,0.00,WUHU216DAVISVP2,2013-06-19 08:51:00,
2013-06-19 03:56:00,65.1,63.6,29.97,North,6,0.0,0.0,95,0.00,,,0.00,WUHU216DAVISVP2,2013-06-19 08:56:00,
2013-06-19 04:01:00,65.1,63.6,29.97,ENE,60,0.0,0.0,95,0.00,,,0.00,WUHU216DAVISVP2,2013-06-19 09:01:00,
2013-06-19 04:06:00,65.2,63.7,29.97,ENE,66,3.0,3.0,95,0.00,,,0.00,WUHU216DAVISVP2,2013-06-19 09:06:00,
2013-06-19 04:11:00,65.1,63.6,29.97,ENE,68,1.0,3.0,95,0.00,,,0.00,WUHU216DAVISVP2,2013-06-19 09:11:00,
2013-06-19 04:16:00,65.1,63.6,29.97,ENE,78,1.0,3.0,95,0.00,,,0.00,WUHU216DAVISVP2,2013-06-19 09:16:00,
2013-06-19 04:21:00,65.1,63.6,29.97,ENE,71,1.0,3.0,95,0.00,,,0.00,WUHU216DAVISVP2,2013-06-19 09:21:00,
2013-06-19 04:26:00,65.1,63.6,29.98,ENE,73,3.0,3.0,95,0.00,,,0.00,WUHU216DAVISVP2,2013-06-19 09:26:00,
2013-06-19 04:31:00,65.1,63.6,29.98,ENE,65,3.0,4.0,95,0.00,,,0.00,WUHU216DAVISVP2,2013-06-19 09:31:00,
2013-06-19 04:36:00,65.1,63.6,29.98,ENE,68,3.0,4.0,95,0.00,,,0.00,WUHU216DAVISVP2,2013-06-19 09:36:00,
2013-06-19 04:41:00,65.1,63.6,29.98,East,79,2.0,3.0,95,0.00,,,0.00,WUHU216DAVISVP2,2013-06-19 09:41:00,
2013-06-19 04:46:00,65.1,63.6,29.98,ENE,70,1.0,3.0,95,0.00,,,0.00,WUHU216DAVISVP2,2013-06-19 09:46:00,
2013-06-19 04:51:00,65.1,63.6,29.98,ENE,72,2.0,3.0,95,0.00,,,0.00,WUHU216DAVISVP2,2013-06-19 09:51:00,
2013-06-19 04:56:00,65.0,63.5,29.98,ENE,74,1.0,2.0,95,0.00,,,0.00,WUHU216DAVISVP2,2013-06-19 09:56:00,
2013-06-19 05:01:00,65.0,63.5,29.98,East,91,1.0,2.0,95,0.00,,,0.00,WUHU216DAVISVP2,2013-06-19 10:01:00,
2013-06-19 05:06:00,64.9,63.4,29.98,East,82,0.0,2.0,95,0.00,,,0.00,WUHU216DAVISVP2,2013-06-19 10:06:00,
2013-06-19 05:11:00,64.8,63.3,29.99,East,82,0.0,1.0,95,0.00,,,0.00,WUHU216DAVISVP2,2013-06-19 10:11:00,
2013-06-19 05:16:00,64.8,63.3,29.99,East,82,0.0,1.0,95,0.00,,,0.00,WUHU216DAVISVP2,2013-06-19 10:16:00,
2013-06-19 05:21:00,64.7,63.2,29.99,East,82,0.0,0.0,95,0.00,,,0.00,WUHU216DAVISVP2,2013-06-19 10:21:00,
2013-06-19 05:26:00,64.7,63.2,29.99,East,82,0.0,0.0,95,0.00,,,0.00,WUHU216DAVISVP2,2013-06-19 10:26:00,
2013-06-19 05:31:00,64.6,63.1,29.99,East,82,0.0,0.0,95,0.00,,,0.00,WUHU216DAVISVP2,2013-06-19 10:31:00,
2013-06-19 05:36:00,64.5,63.0,29.99,ENE,63,2.0,3.0,95,0.00,,,0.00,WUHU216DAVISVP2,2013-06-19 10:36:00,
2013-06-19 05:41:00,64.5,63.0,29.99,East,79,0.0,3.0,95,0.00,,,0.00,WUHU216DAVISVP2,2013-06-19 10:41:00,
2013-06-19 05:46:00,64.5,63.3,29.99,ENE,77,1.0,2.0,96,0.00,,,0.00,WUHU216DAVISVP2,2013-06-19 10:46:00,
2013-06-19 05:51:00,64.5,63.3,29.99,ENE,75,0.0,2.0,96,0.00,,,0.00,WUHU216DAVISVP2,2013-06-19 10:51:00,
2013-06-19 05:56:00,64.6,63.4,30.00,ENE,76,0.0,2.0,96,0.00,,,0.00,WUHU216DAVISVP2,2013-06-19 10:56:00,
2013-06-19 06:01:00,64.8,63.3,30.00,ENE,76,0.0,2.0,95,0.00,,,0.00,WUHU216DAVISVP2,2013-06-19 11:01:00,
2013-06-19 06:06:00,65.0,63.5,30.00,ENE,64,0.0,1.0,95,0.00,,,0.00,WUHU216DAVISVP2,2013-06-19 11:06:00,
2013-06-19 06:11:00,65.2,63.7,30.00,ENE,63,0.0,1.0,95,0.00,,,0.00,WUHU216DAVISVP2,2013-06-19 11:11:00,
2013-06-19 06:16:00,65.5,63.7,30.00,East,81,0.0,0.0,94,0.00,,,0.00,WUHU216DAVISVP2,2013-06-19 11:16:00,
2013-06-19 06:21:00,66.1,64.3,30.00,East,81,0.0,0.0,94,0.00,,,0.00,WUHU216DAVISVP2,2013-06-19 11:21:00,
2013-06-19 06:26:00,66.4,64.3,30.00,ENE,65,0.0,0.0,93,0.00,,,0.00,WUHU216DAVISVP2,2013-06-19 11:26:00,
2013-06-19 06:31:00,66.5,64.4,30.00,ENE,75,0.0,0.0,93,0.00,,,0.00,WUHU216DAVISVP2,2013-06-19 11:31:00,
2013-06-19 06:36:00,66.7,64.3,30.00,ENE,68,0.0,0.0,92,0.00,,,0.00,WUHU216DAVISVP2,2013-06-19 11:36:00,
2013-06-19 06:41:00,66.9,64.5,30.01,ENE,74,2.0,2.0,92,0.00,,,0.00,WUHU216DAVISVP2,2013-06-19 11:41:00,
2013-06-19 06:46:00,67.4,65.0,30.01,East,91,1.0,3.0,92,0.00,,,0.00,WUHU216DAVISVP2,2013-06-19 11:46:00,
2013-06-19 06:51:00,67.5,64.8,30.01,ENE,75,1.0,3.0,91,0.00,,,0.00,WUHU216DAVISVP2,2013-06-19 11:51:00,
2013-06-19 06:56:00,67.6,64.9,30.01,ENE,58,4.0,5.0,91,0.00,,,0.00,WUHU216DAVISVP2,2013-06-19 11:56:00,
2013-06-19 07:01:00,67.5,64.8,30.01,East,79,4.0,6.0,91,0.00,,,0.00,WUHU216DAVISVP2,2013-06-19 12:01:00,
2013-06-19 07:06:00,67.7,64.6,30.01,NE,50,2.0,6.0,90,0.00,,,0.00,WUHU216DAVISVP2,2013-06-19 12:06:00,
2013-06-19 07:11:00,68.0,64.9,30.02,North,350,0.0,6.0,90,0.00,,,0.00,WUHU216DAVISVP2,2013-06-19 12:11:00,
2013-06-19 07:16:00,68.2,64.8,30.02,ESE,104,3.0,7.0,89,0.00,,,0.00,WUHU216DAVISVP2,2013-06-19 12:16:00,
2013-06-19 07:21:00,68.6,65.2,30.02,ENE,58,3.0,7.0,89,0.00,,,0.00,WUHU216DAVISVP2,2013-06-19 12:21:00,
2013-06-19 07:26:00,69.0,65.6,30.02,East,84,3.0,6.0,89,0.00,,,0.00,WUHU216DAVISVP2,2013-06-19 12:26:00,
2013-06-19 07:31:00,69.4,65.7,30.02,ENE,58,3.0,4.0,88,0.00,,,0.00,WUHU216DAVISVP2,2013-06-19 12:31:00,
2013-06-19 07:36:00,69.6,65.9,30.02,ENE,78,5.0,6.0,88,0.00,,,0.00,WUHU216DAVISVP2,2013-06-19 12:36:00,
2013-06-19 07:41:00,69.8,65.8,30.02,East,90,2.0,6.0,87,0.00,,,0.00,WUHU216DAVISVP2,2013-06-19 12:41:00,
2013-06-19 07:46:00,70.0,65.6,30.02,ENE,61,4.0,6.0,86,0.00,,,0.00,WUHU216DAVISVP2,2013-06-19 12:46:00,
2013-06-19 07:51:00,70.1,65.4,30.02,ENE,75,1.0,6.0,85,0.00,,,0.00,WUHU216DAVISVP2,2013-06-19 12:51:00,
2013-06-19 07:56:00,70.6,65.9,30.02,ENE,69,3.0,6.0,85,0.00,,,0.00,WUHU216DAVISVP2,2013-06-19 12:56:00,
2013-06-19 08:01:00,70.9,65.5,30.02,NE,44,5.0,6.0,83,0.00,,,0.00,WUHU216DAVISVP2,2013-06-19 13:01:00,
2013-06-19 08:06:00,71.1,65.7,30.03,East,89,4.0,7.0,83,0.00,,,0.00,WUHU216DAVISVP2,2013-06-19 13:06:00,
2013-06-19 08:11:00,71.6,66.2,30.02,ENE,68,4.0,7.0,83,0.00,,,0.00,WUHU216DAVISVP2,2013-06-19 13:11:00,
2013-06-19 08:16:00,72.0,66.3,30.02,ENE,66,2.0,5.0,82,0.00,,,0.00,WUHU216DAVISVP2,2013-06-19 13:16:00,
2013-06-19 08:21:00,72.1,66.3,30.03,East,88,3.0,6.0,82,0.00,,,0.00,WUHU216DAVISVP2,2013-06-19 13:21:00,
2013-06-19 08:26:00,72.6,66.2,30.03,NE,37,4.0,6.0,80,0.00,,,0.00,WUHU216DAVISVP2,2013-06-19 13:26:00,
2013-06-19 08:31:00,72.9,66.5,30.03,ENE,58,3.0,5.0,80,0.00,,,0.00,WUHU216DAVISVP2,2013-06-19 13:31:00,
2013-06-19 08:36:00,73.3,66.8,30.03,North,358,1.0,4.0,80,0.00,,,0.00,WUHU216DAVISVP2,2013-06-19 13:36:00,
2013-06-19 08:41:00,73.6,66.4,30.03,ENE,58,3.0,5.0,78,0.00,,,0.00,WUHU216DAVISVP2,2013-06-19 13:41:00,
2013-06-19 08:46:00,73.7,66.2,30.03,ENE,68,3.0,5.0,77,0.00,,,0.00,WUHU216DAVISVP2,2013-06-19 13:46:00,
2013-06-19 08:51:00,73.6,65.7,30.03,ENE,77,5.0,6.0,76,0.00,,,0.00,WUHU216DAVISVP2,2013-06-19 13:51:00,
2013-06-19 08:56:00,74.1,66.6,30.03,ENE,69,4.0,6.0,77,0.00,,,0.00,WUHU216DAVISVP2,2013-06-19 13:56:00,
2013-06-19 09:01:00,74.3,66.4,30.03,ENE,63,5.0,6.0,76,0.00,,,0.00,WUHU216DAVISVP2,2013-06-19 14:01:00,
2013-06-19 09:06:00,74.4,66.3,30.03,ENE,63,3.0,6.0,76,0.00,,,0.00,WUHU216DAVISVP2,2013-06-19 14:06:00,
2013-06-19 09:11:00,74.4,66.3,30.03,NE,56,0.0,6.0,76,0.00,,,0.00,WUHU216DAVISVP2,2013-06-19 14:11:00,
2013-06-19 09:16:00,75.3,67.7,30.03,NE,48,3.0,6.0,77,0.00,,,0.00,WUHU216DAVISVP2,2013-06-19 14:16:00,
2013-06-19 09:21:00,75.2,66.5,30.03,West,276,1.0,5.0,74,0.00,,,0.00,WUHU216DAVISVP2,2013-06-19 14:21:00,
2013-06-19 09:26:00,75.8,67.8,30.04,East,79,1.0,4.0,76,0.00,,,0.00,WUHU216DAVISVP2,2013-06-19 14:26:00,
2013-06-19 09:31:00,76.5,67.4,30.04,North,11,1.0,3.0,73,0.00,,,0.00,WUHU216DAVISVP2,2013-06-19 14:31:00,
2013-06-19 09:36:00,76.3,67.2,30.03,NE,49,1.0,6.0,73,0.00,,,0.00,WUHU216DAVISVP2,2013-06-19 14:36:00,
2013-06-19 09:41:00,76.5,67.4,30.03,NE,34,1.0,6.0,73,0.00,,,0.00,WUHU216DAVISVP2,2013-06-19 14:41:00,
2013-06-19 09:46:00,77.3,67.6,30.03,NNE,14,0.0,4.0,72,0.00,,,0.00,WUHU216DAVISVP2,2013-06-19 14:46:00,
2013-06-19 09:51:00,77.1,65.9,30.03,ENE,64,4.0,5.0,68,0.00,,,0.00,WUHU216DAVISVP2,2013-06-19 14:51:00,
2013-06-19 09:56:00,77.1,66.4,30.04,East,92,4.0,6.0,69,0.00,,,0.00,WUHU216DAVISVP2,2013-06-19 14:56:00,
2013-06-19 10:01:00,77.1,66.8,30.03,ENE,70,4.0,6.0,70,0.00,,,0.00,WUHU216DAVISVP2,2013-06-19 15:01:00,
2013-06-19 10:06:00,77.4,66.2,30.03,ENE,60,5.0,6.0,68,0.00,,,0.00,WUHU216DAVISVP2,2013-06-19 15:06:00,
2013-06-19 10:11:00,77.4,66.6,30.03,ENE,60,5.0,7.0,69,0.00,,,0.00,WUHU216DAVISVP2,2013-06-19 15:11:00,
2013-06-19 10:16:00,77.5,65.9,30.03,ENE,63,3.0,7.0,67,0.00,,,0.00,WUHU216DAVISVP2,2013-06-19 15:16:00,
2013-06-19 10:21:00,77.6,64.7,30.04,ENE,68,5.0,7.0,64,0.00,,,0.00,WUHU216DAVISVP2,2013-06-19 15:21:00,
2013-06-19 10:26:00,77.8,65.3,30.04,ENE,59,4.0,7.0,65,0.00,,,0.00,WUHU216DAVISVP2,2013-06-19 15:26:00,
2013-06-19 10:31:00,78.0,65.7,30.04,East,83,5.0,7.0,66,0.00,,,0.00,WUHU216DAVISVP2,2013-06-19 15:31:00,
2013-06-19 10:36:00,78.6,65.4,30.04,East,80,5.0,8.0,64,0.00,,,0.00,WUHU216DAVISVP2,2013-06-19 15:36:00,
2013-06-19 10:41:00,78.6,65.4,30.04,NE,51,0.0,8.0,64,0.00,,,0.00,WUHU216DAVISVP2,2013-06-19 15:41:00,
2013-06-19 10:46:00,79.0,66.5,30.04,ENE,72,2.0,6.0,65,0.00,,,0.00,WUHU216DAVISVP2,2013-06-19 15:46:00,
2013-06-19 10:51:00,79.4,66.8,30.04,NE,53,1.0,6.0,65,0.00,,,0.00,WUHU216DAVISVP2,2013-06-19 15:51:00,
2013-06-19 10:56:00,79.9,66.9,30.04,NNE,24,1.0,6.0,64,0.00,,,0.00,WUHU216DAVISVP2,2013-06-19 15:56:00,
2013-06-19 11:01:00,79.9,66.0,30.04,NE,51,0.0,6.0,62,0.00,,,0.00,WUHU216DAVISVP2,2013-06-19 16:01:00,
2013-06-19 11:06:00,80.4,65.5,30.04,ENE,57,3.0,7.0,60,0.00,,,0.00,WUHU216DAVISVP2,2013-06-19 16:06:00,
2013-06-19 11:11:00,80.1,66.1,30.04,NE,53,5.0,7.0,62,0.00,,,0.00,WUHU216DAVISVP2,2013-06-19 16:11:00,
2013-06-19 11:16:00,80.4,66.4,30.04,NW,319,4.0,5.0,62,0.00,,,0.00,WUHU216DAVISVP2,2013-06-19 16:16:00,
2013-06-19 11:21:00,80.7,65.8,30.04,East,93,2.0,6.0,60,0.00,,,0.00,WUHU216DAVISVP2,2013-06-19 16:21:00,
2013-06-19 11:26:00,80.7,67.6,30.04,NE,34,2.0,6.0,64,0.00,,,0.00,WUHU216DAVISVP2,2013-06-19 16:26:00,
2013-06-19 11:31:00,81.8,66.6,30.04,ENE,59,2.0,5.0,60,0.00,,,0.00,WUHU216DAVISVP2,2013-06-19 16:31:00,
2013-06-19 11:36:00,81.2,66.0,30.04,NW,321,4.0,7.0,60,0.00,,,0.00,WUHU216DAVISVP2,2013-06-19 16:36:00,
2013-06-19 11:41:00,81.0,64.8,30.04,NW,323,0.0,7.0,58,0.00,,,0.00,WUHU216DAVISVP2,2013-06-19 16:41:00,
2013-06-19 11:46:00,81.6,67.1,30.04,NNW,338,0.0,6.0,61,0.00,,,0.00,WUHU216DAVISVP2,2013-06-19 16:46:00,
2013-06-19 11:51:00,81.6,67.1,30.04,East,84,4.0,7.0,61,0.00,,,0.00,WUHU216DAVISVP2,2013-06-19 16:51:00,
2013-06-19 11:56:00,81.1,67.1,30.04,ESE,105,1.0,7.0,62,0.00,,,0.00,WUHU216DAVISVP2,2013-06-19 16:56:00,
2013-06-19 12:01:00,81.5,67.0,30.04,NE,51,2.0,8.0,61,0.00,,,0.00,WUHU216DAVISVP2,2013-06-19 17:01:00,
2013-06-19 12:06:00,81.6,67.1,30.04,NW,314,2.0,8.0,61,0.00,,,0.00,WUHU216DAVISVP2,2013-06-19 17:06:00,
2013-06-19 12:11:00,82.0,69.3,30.04,North,3,5.0,8.0,65,0.00,,,0.00,WUHU216DAVISVP2,2013-06-19 17:11:00,
2013-06-19 12:16:00,81.9,66.4,30.04,NW,309,1.0,9.0,59,0.00,,,0.00,WUHU216DAVISVP2,2013-06-19 17:16:00,
2013-06-19 12:21:00,82.4,68.3,30.04,NE,56,5.0,9.0,62,0.00,,,0.00,WUHU216DAVISVP2,2013-06-19 17:21:00,
2013-06-19 12:26:00,82.0,67.0,30.03,NE,45,4.0,8.0,60,0.00,,,0.00,WUHU216DAVISVP2,2013-06-19 17:26:00,
2013-06-19 12:31:00,81.9,65.9,30.03,NE,50,1.0,7.0,58,0.00,,,0.00,WUHU216DAVISVP2,2013-06-19 17:31:00,
2013-06-19 12:36:00,82.2,67.2,30.03,NE,39,2.0,7.0,60,0.00,,,0.00,WUHU216DAVISVP2,2013-06-19 17:36:00,
2013-06-19 12:41:00,82.6,67.1,30.03,ENE,60,3.0,7.0,59,0.00,,,0.00,WUHU216DAVISVP2,2013-06-19 17:41:00,
2013-06-19 12:46:00,83.3,69.2,30.03,ENE,65,3.0,11.0,62,0.00,,,0.00,WUHU216DAVISVP2,2013-06-19 17:46:00,
2013-06-19 12:51:00,83.1,67.8,30.03,NNW,335,3.0,11.0,60,0.00,,,0.00,WUHU216DAVISVP2,2013-06-19 17:51:00,
2013-06-19 12:56:00,82.6,67.1,30.03,ENE,59,2.0,4.0,59,0.00,,,0.00,WUHU216DAVISVP2,2013-06-19 17:56:00,
2013-06-19 13:01:00,82.5,67.0,30.03,NE,53,3.0,5.0,59,0.00,,,0.00,WUHU216DAVISVP2,2013-06-19 18:01:00,
2013-06-19 13:06:00,82.8,67.7,30.02,SSE,147,0.0,6.0,60,0.00,,,0.00,WUHU216DAVISVP2,2013-06-19 18:06:00,
2013-06-19 13:11:00,83.9,67.8,30.02,NW,316,5.0,8.0,58,0.00,,,0.00,WUHU216DAVISVP2,2013-06-19 18:11:00,
2013-06-19 13:16:00,82.8,66.7,30.02,NE,39,1.0,8.0,58,0.00,,,0.00,WUHU216DAVISVP2,2013-06-19 18:16:00,
2013-06-19 13:21:00,82.8,65.7,30.02,ENE,59,6.0,8.0,56,0.00,,,0.00,WUHU216DAVISVP2,2013-06-19 18:21:00,
2013-06-19 13:26:00,82.9,65.8,30.02,ENE,70,4.0,8.0,56,0.00,,,0.00,WUHU216DAVISVP2,2013-06-19 18:26:00,
2013-06-19 13:31:00,83.6,65.4,30.02,ENE,68,4.0,8.0,54,0.00,,,0.00,WUHU216DAVISVP2,2013-06-19 18:31:00,
2013-06-19 13:36:00,83.7,64.4,30.01,ENE,68,3.0,6.0,52,0.00,,,0.00,WUHU216DAVISVP2,2013-06-19 18:36:00,
2013-06-19 13:41:00,83.8,65.0,30.01,East,82,0.0,6.0,53,0.00,,,0.00,WUHU216DAVISVP2,2013-06-19 18:41:00,
2013-06-19 13:46:00,84.8,63.6,30.01,NW,319,0.0,6.0,49,0.00,,,0.00,WUHU216DAVISVP2,2013-06-19 18:46:00,
2013-06-19 13:51:00,85.6,66.1,30.01,NE,41,3.0,5.0,52,0.00,,,0.00,WUHU216DAVISVP2,2013-06-19 18:51:00,
2013-06-19 13:56:00,85.3,64.6,30.01,ENE,71,3.0,6.0,50,0.00,,,0.00,WUHU216DAVISVP2,2013-06-19 18:56:00,
2013-06-19 14:01:00,85.5,65.9,30.01,West,273,0.0,6.0,52,0.00,,,0.00,WUHU216DAVISVP2,2013-06-19 19:01:00,
2013-06-19 14:06:00,85.7,66.0,30.01,ENE,65,6.0,6.0,52,0.00,,,0.00,WUHU216DAVISVP2,2013-06-19 19:06:00,
2013-06-19 14:11:00,85.3,65.7,30.01,WSW,255,1.0,6.0,52,0.00,,,0.00,WUHU216DAVISVP2,2013-06-19 19:11:00,
2013-06-19 14:16:00,85.8,65.2,30.01,NE,52,4.0,6.0,50,0.00,,,0.00,WUHU216DAVISVP2,2013-06-19 19:16:00,
2013-06-19 14:21:00,85.4,64.8,30.01,East,81,5.0,8.0,50,0.00,,,0.00,WUHU216DAVISVP2,2013-06-19 19:21:00,
2013-06-19 14:26:00,84.8,64.2,30.01,NE,55,5.0,8.0,50,0.00,,,0.00,WUHU216DAVISVP2,2013-06-19 19:26:00,
2013-06-19 14:31:00,84.8,63.6,30.01,ENE,65,7.0,10.0,49,0.00,,,0.00,WUHU216DAVISVP2,2013-06-19 19:31:00,
2013-06-19 14:36:00,84.8,65.4,30.01,ENE,68,3.0,10.0,52,0.00,,,0.00,WUHU216DAVISVP2,2013-06-19 19:36:00,
2013-06-19 14:41:00,85.1,63.9,30.01,ENE,67,5.0,7.0,49,0.00,,,0.00,WUHU216DAVISVP2,2013-06-19 19:41:00,
2013-06-19 14:46:00,83.9,64.6,30.01,East,101,4.0,7.0,52,0.00,,,0.00,WUHU216DAVISVP2,2013-06-19 19:46:00,
2013-06-19 14:51:00,83.9,65.7,30.01,ENE,77,3.0,7.0,54,0.00,,,0.00,WUHU216DAVISVP2,2013-06-19 19:51:00,
2013-06-19 14:56:00,84.1,64.7,30.01,East,97,1.0,7.0,52,0.00,,,0.00,WUHU216DAVISVP2,2013-06-19 19:56:00,
2013-06-19 15:01:00,84.6,65.8,30.01,ENE,69,6.0,7.0,53,0.00,,,0.00,WUHU216DAVISVP2,2013-06-19 20:01:00,
2013-06-19 15:06:00,84.5,65.7,30.01,East,94,3.0,8.0,53,0.00,,,0.00,WUHU216DAVISVP2,2013-06-19 20:06:00,
2013-06-19 15:11:00,84.5,66.2,30.01,East,95,1.0,9.0,54,0.00,,,0.00,WUHU216DAVISVP2,2013-06-19 20:11:00,
2013-06-19 15:16:00,84.8,64.2,30.01,ENE,68,8.0,10.0,50,0.00,,,0.00,WUHU216DAVISVP2,2013-06-19 20:16:00,
2013-06-19 15:21:00,84.8,64.1,30.00,ENE,66,1.0,10.0,50,0.00,,,0.00,WUHU216DAVISVP2,2013-06-19 20:21:00,
2013-06-19 15:26:00,85.2,63.9,30.00,East,79,2.0,8.0,49,0.00,,,0.00,WUHU216DAVISVP2,2013-06-19 20:26:00,
2013-06-19 15:31:00,85.8,65.6,30.00,ENE,63,9.0,9.0,51,0.00,,,0.00,WUHU216DAVISVP2,2013-06-19 20:31:00,
2013-06-19 15:36:00,85.4,65.2,30.00,ENE,76,7.0,10.0,51,0.00,,,0.00,WUHU216DAVISVP2,2013-06-19 20:36:00,
2013-06-19 15:41:00,85.2,66.3,30.00,East,81,4.0,10.0,53,0.00,,,0.00,WUHU216DAVISVP2,2013-06-19 20:41:00,
2013-06-19 15:46:00,85.0,65.0,30.00,ENE,60,4.0,10.0,51,0.00,,,0.00,WUHU216DAVISVP2,2013-06-19 20:46:00,
2013-06-19 15:51:00,84.7,64.7,30.00,ENE,66,5.0,10.0,51,0.00,,,0.00,WUHU216DAVISVP2,2013-06-19 20:51:00,
2013-06-19 15:56:00,85.0,64.4,30.00,NE,52,3.0,10.0,50,0.00,,,0.00,WUHU216DAVISVP2,2013-06-19 20:56:00,
2013-06-19 16:01:00,84.7,64.7,30.00,ENE,66,4.0,6.0,51,0.00,,,0.00,WUHU216DAVISVP2,2013-06-19 21:01:00,
2013-06-19 16:06:00,84.8,63.6,30.00,East,82,6.0,7.0,49,0.00,,,0.00,WUHU216DAVISVP2,2013-06-19 21:06:00,
2013-06-19 16:11:00,85.1,63.9,30.00,ENE,75,4.0,7.0,49,0.00,,,0.00,WUHU216DAVISVP2,2013-06-19 21:11:00,
2013-06-19 16:16:00,85.5,64.9,30.00,ESE,116,0.0,7.0,50,0.00,,,0.00,WUHU216DAVISVP2,2013-06-19 21:16:00,
2013-06-19 16:21:00,86.1,64.2,30.00,ESE,111,1.0,5.0,48,0.00,,,0.00,WUHU216DAVISVP2,2013-06-19 21:21:00,
2013-06-19 16:26:00,86.3,65.0,30.00,ESE,119,0.0,5.0,49,0.00,,,0.00,WUHU216DAVISVP2,2013-06-19 21:26:00,
2013-06-19 16:31:00,86.9,64.8,30.00,ESE,113,2.0,5.0,48,0.00,,,0.00,WUHU216DAVISVP2,2013-06-19 21:31:00,
2013-06-19 16:36:00,87.1,63.2,30.00,NE,56,1.0,3.0,45,0.00,,,0.00,WUHU216DAVISVP2,2013-06-19 21:36:00,
2013-06-19 16:41:00,86.3,64.9,30.00,ENE,63,7.0,8.0,49,0.00,,,0.00,WUHU216DAVISVP2,2013-06-19 21:41:00,
2013-06-19 16:46:00,85.5,63.6,30.00,ENE,65,6.0,8.0,48,0.00,,,0.00,WUHU216DAVISVP2,2013-06-19 21:46:00,
2013-06-19 16:51:00,85.2,65.2,30.00,ENE,65,3.0,8.0,51,0.00,,,0.00,WUHU216DAVISVP2,2013-06-19 21:51:00,
2013-06-19 16:56:00,84.6,63.5,30.00,ENE,72,3.0,7.0,49,0.00,,,0.00,WUHU216DAVISVP2,2013-06-19 21:56:00,
2013-06-19 17:01:00,84.1,64.2,30.00,ENE,58,3.0,5.0,51,0.00,,,0.00,WUHU216DAVISVP2,2013-06-19 22:01:00,
2013-06-19 17:06:00,84.2,64.8,30.00,East,98,1.0,6.0,52,0.00,,,0.00,WUHU216DAVISVP2,2013-06-19 22:06:00,
2013-06-19 17:11:00,84.9,63.7,30.00,ENE,75,1.0,6.0,49,0.00,,,0.00,WUHU216DAVISVP2,2013-06-19 22:11:00,
2013-06-19 17:16:00,85.2,64.0,30.00,East,92,2.0,2.0,49,0.00,,,0.00,WUHU216DAVISVP2,2013-06-19 22:16:00,
2013-06-19 17:21:00,84.7,62.3,30.00,East,100,2.0,3.0,47,0.00,,,0.00,WUHU216DAVISVP2,2013-06-19 22:21:00,
2013-06-19 17:26:00,84.2,63.7,29.99,East,86,0.0,7.0,50,0.00,,,0.00,WUHU216DAVISVP2,2013-06-19 22:26:00,
2013-06-19 17:31:00,84.1,63.0,29.99,East,86,0.0,7.0,49,0.00,,,0.00,WUHU216DAVISVP2,2013-06-19 22:31:00,
2013-06-19 17:36:00,84.1,61.8,29.99,ENE,70,1.0,2.0,47,0.00,,,0.00,WUHU216DAVISVP2,2013-06-19 22:36:00,
2013-06-19 17:41:00,84.1,61.8,29.99,ENE,66,0.0,2.0,47,0.00,,,0.00,WUHU216DAVISVP2,2013-06-19 22:41:00,
2013-06-19 17:46:00,84.6,63.5,29.99,ENE,66,0.0,1.0,49,0.00,,,0.00,WUHU216DAVISVP2,2013-06-19 22:46:00,
2013-06-19 17:51:00,85.9,63.4,29.99,ENE,67,0.0,1.0,47,0.00,,,0.00,WUHU216DAVISVP2,2013-06-19 22:51:00,
2013-06-19 17:56:00,87.2,63.3,29.99,ENE,67,0.0,1.0,45,0.00,,,0.00,WUHU216DAVISVP2,2013-06-19 22:56:00,
2013-06-19 18:01:00,87.1,62.5,29.99,ENE,71,0.0,3.0,44,0.00,,,0.00,WUHU216DAVISVP2,2013-06-19 23:01:00,
2013-06-19 18:06:00,85.8,62.1,29.99,ENE,77,2.0,3.0,45,0.00,,,0.00,WUHU216DAVISVP2,2013-06-19 23:06:00,
2013-06-19 18:11:00,85.3,62.8,29.99,NNE,31,0.0,3.0,47,0.00,,,0.00,WUHU216DAVISVP2,2013-06-19 23:11:00,
2013-06-19 18:16:00,85.0,61.3,29.99,East,81,0.0,3.0,45,0.00,,,0.00,WUHU216DAVISVP2,2013-06-19 23:16:00,
2013-06-19 18:21:00,85.6,63.2,29.99,East,81,0.0,3.0,47,0.00,,,0.00,WUHU216DAVISVP2,2013-06-19 23:21:00,
2013-06-19 18:26:00,85.2,62.8,29.99,ENE,64,3.0,4.0,47,0.00,,,0.00,WUHU216DAVISVP2,2013-06-19 23:26:00,
2013-06-19 18:31:00,84.3,62.0,29.99,ENE,65,2.0,4.0,47,0.00,,,0.00,WUHU216DAVISVP2,2013-06-19 23:31:00,
2013-06-19 18:36:00,84.1,62.9,29.99,ENE,63,2.0,3.0,49,0.00,,,0.00,WUHU216DAVISVP2,2013-06-19 23:36:00,
2013-06-19 18:41:00,84.1,63.0,29.99,ENE,58,1.0,3.0,49,0.00,,,0.00,WUHU216DAVISVP2,2013-06-19 23:41:00,
2013-06-19 18:46:00,84.5,63.4,29.99,ENE,70,1.0,3.0,49,0.00,,,0.00,WUHU216DAVISVP2,2013-06-19 23:46:00,
2013-06-19 18:51:00,84.4,63.3,29.99,ENE,67,1.0,3.0,49,0.00,,,0.00,WUHU216DAVISVP2,2013-06-19 23:51:00,
2013-06-19 18:56:00,84.6,63.5,30.00,ENE,67,0.0,3.0,49,0.00,,,0.00,WUHU216DAVISVP2,2013-06-19 23:56:00,
2013-06-19 19:01:00,84.7,62.8,30.00,ENE,71,2.0,2.0,48,0.00,,,0.00,WUHU216DAVISVP2,2013-06-20 00:01:00,
2013-06-19 19:06:00,84.4,63.9,30.00,NE,56,0.0,3.0,50,0.00,,,0.00,WUHU216DAVISVP2,2013-06-20 00:06:00,
2013-06-19 19:11:00,84.8,61.8,30.00,ENE,71,1.0,3.0,46,0.00,,,0.00,WUHU216DAVISVP2,2013-06-20 00:11:00,
2013-06-19 19:16:00,85.3,62.9,30.00,ENE,72,1.0,2.0,47,0.00,,,0.00,WUHU216DAVISVP2,2013-06-20 00:16:00,
2013-06-19 19:21:00,84.9,63.0,30.00,ENE,69,1.0,1.0,48,0.00,,,0.00,WUHU216DAVISVP2,2013-06-20 00:21:00,
2013-06-19 19:26:00,84.3,62.6,30.00,ENE,69,1.0,2.0,48,0.00,,,0.00,WUHU216DAVISVP2,2013-06-20 00:26:00,
2013-06-19 19:31:00,83.8,63.3,30.00,ENE,69,0.0,2.0,50,0.00,,,0.00,WUHU216DAVISVP2,2013-06-20 00:31:00,
2013-06-19 19:36:00,83.4,63.5,30.00,ENE,69,0.0,1.0,51,0.00,,,0.00,WUHU216DAVISVP2,2013-06-20 00:36:00,
2013-06-19 19:41:00,82.9,64.2,30.00,ENE,69,0.0,1.0,53,0.00,,,0.00,WUHU216DAVISVP2,2013-06-20 00:41:00,
2013-06-19 19:46:00,82.4,64.8,30.00,ENE,69,1.0,1.0,55,0.00,,,0.00,WUHU216DAVISVP2,2013-06-20 00:46:00,
2013-06-19 19:51:00,82.0,64.2,30.00,ENE,69,0.0,1.0,55,0.00,,,0.00,WUHU216DAVISVP2,2013-06-20 00:51:00,
2013-06-19 19:56:00,81.6,64.9,30.00,ENE,69,0.0,1.0,57,0.00,,,0.00,WUHU216DAVISVP2,2013-06-20 00:56:00,
2013-06-19 20:01:00,81.2,64.2,30.00,ENE,69,0.0,0.0,56,0.00,,,0.00,WUHU216DAVISVP2,2013-06-20 01:01:00,
2013-06-19 20:06:00,80.5,67.9,30.00,ENE,69,0.0,1.0,65,0.00,,,0.00,WUHU216DAVISVP2,2013-06-20 01:06:00,
2013-06-19 20:11:00,79.6,67.2,30.00,ENE,75,0.0,1.0,66,0.00,,,0.00,WUHU216DAVISVP2,2013-06-20 01:11:00,
2013-06-19 20:16:00,78.9,67.9,30.00,ENE,75,0.0,1.0,69,0.00,,,0.00,WUHU216DAVISVP2,2013-06-20 01:16:00,
2013-06-19 20:21:00,78.2,66.3,30.00,ENE,76,0.0,0.0,67,0.00,,,0.00,WUHU216DAVISVP2,2013-06-20 01:21:00,
2013-06-19 20:26:00,77.9,66.1,30.00,ENE,75,0.0,0.0,67,0.00,,,0.00,WUHU216DAVISVP2,2013-06-20 01:26:00,
2013-06-19 20:31:00,77.7,66.1,30.00,ENE,76,0.0,0.0,67,0.00,,,0.00,WUHU216DAVISVP2,2013-06-20 01:31:00,
2013-06-19 20:36:00,77.4,66.2,30.00,ENE,75,0.0,0.0,68,0.00,,,0.00,WUHU216DAVISVP2,2013-06-20 01:36:00,
2013-06-19 20:41:00,77.2,65.8,30.00,ENE,75,0.0,0.0,68,0.00,,,0.00,WUHU216DAVISVP2,2013-06-20 01:41:00,
2013-06-19 20:46:00,77.0,66.5,30.00,ENE,75,0.0,0.0,70,0.00,,,0.00,WUHU216DAVISVP2,2013-06-20 01:46:00,
2013-06-19 20:51:00,76.8,66.9,30.00,ENE,75,0.0,0.0,71,0.00,,,0.00,WUHU216DAVISVP2,2013-06-20 01:51:00,
2013-06-19 20:56:00,76.6,66.9,30.00,ENE,75,0.0,0.0,72,0.00,,,0.00,WUHU216DAVISVP2,2013-06-20 01:56:00,
2013-06-19 21:01:00,76.4,67.1,30.00,ENE,75,0.0,0.0,73,0.00,,,0.00,WUHU216DAVISVP2,2013-06-20 02:01:00,
2013-06-19 21:06:00,76.1,67.4,30.00,ENE,75,0.0,0.0,74,0.00,,,0.00,WUHU216DAVISVP2,2013-06-20 02:06:00,
2013-06-19 21:10:00,75.7,66.8,30.01,ENE,75,0.0,0.0,74,0.00,,,0.00,WUHU216DAVISVP2,2013-06-20 02:10:00,
2013-06-19 21:15:00,75.3,67.2,30.01,ENE,75,0.0,0.0,76,0.00,,,0.00,WUHU216DAVISVP2,2013-06-20 02:15:00,
2013-06-19 21:20:00,75.0,67.3,30.01,ENE,75,0.0,0.0,77,0.00,,,0.00,WUHU216DAVISVP2,2013-06-20 02:20:00,
2013-06-19 21:25:00,74.6,67.0,30.01,ENE,75,0.0,0.0,77,0.00,,,0.00,WUHU216DAVISVP2,2013-06-20 02:25:00,
2013-06-19 21:30:00,74.2,66.7,30.02,ENE,75,0.0,0.0,77,0.00,,,0.00,WUHU216DAVISVP2,2013-06-20 02:30:00,
2013-06-19 21:35:00,73.8,66.6,30.02,ENE,75,0.0,0.0,78,0.00,,,0.00,WUHU216DAVISVP2,2013-06-20 02:35:00,
2013-06-19 21:40:00,73.4,66.5,30.02,ENE,75,0.0,0.0,79,0.00,,,0.00,WUHU216DAVISVP2,2013-06-20 02:40:00,
2013-06-19 21:45:00,73.1,66.9,30.03,ENE,75,0.0,0.0,81,0.00,,,0.00,WUHU216DAVISVP2,2013-06-20 02:45:00,
2013-06-19 21:50:00,73.1,67.0,30.03,ENE,75,0.0,0.0,81,0.00,,,0.00,WUHU216DAVISVP2,2013-06-20 02:50:00,
2013-06-19 21:55:00,73.0,67.2,30.03,ENE,75,0.0,0.0,82,0.00,,,0.00,WUHU216DAVISVP2,2013-06-20 02:55:00,
2013-06-19 22:00:00,73.0,67.2,30.03,ENE,75,0.0,0.0,82,0.00,,,0.00,WUHU216DAVISVP2,2013-06-20 03:00:00,
2013-06-19 22:05:00,72.8,67.4,30.03,ENE,75,0.0,0.0,83,0.00,,,0.00,WUHU216DAVISVP2,2013-06-20 03:05:00,
2013-06-19 22:10:00,72.7,67.6,30.03,ENE,75,0.0,0.0,84,0.00,,,0.00,WUHU216DAVISVP2,2013-06-20 03:10:00,
2013-06-19 22:15:00,72.4,67.7,30.03,ENE,75,0.0,0.0,85,0.00,,,0.00,WUHU216DAVISVP2,2013-06-20 03:15:00,
2013-06-19 22:20:00,72.2,67.5,30.03,ENE,75,0.0,0.0,85,0.00,,,0.00,WUHU216DAVISVP2,2013-06-20 03:20:00,
2013-06-19 22:25:00,72.2,67.8,30.04,ENE,75,0.0,0.0,86,0.00,,,0.00,WUHU216DAVISVP2,2013-06-20 03:25:00,
2013-06-19 22:30:00,72.4,67.0,30.04,ENE,75,0.0,0.0,83,0.00,,,0.00,WUHU216DAVISVP2,2013-06-20 03:30:00,
2013-06-19 22:35:00,72.6,67.2,30.04,ENE,75,0.0,0.0,83,0.00,,,0.00,WUHU216DAVISVP2,2013-06-20 03:35:00,
2013-06-19 22:40:00,72.8,67.1,30.04,ENE,60,0.0,0.0,82,0.00,,,0.00,WUHU216DAVISVP2,2013-06-20 03:40:00,
2013-06-19 22:45:00,73.4,66.9,30.04,ENE,60,0.0,0.0,80,0.00,,,0.00,WUHU216DAVISVP2,2013-06-20 03:45:00,
2013-06-19 22:50:00,73.4,67.3,30.04,ENE,60,0.0,0.0,81,0.00,,,0.00,WUHU216DAVISVP2,2013-06-20 03:50:00,
2013-06-19 22:55:00,73.1,66.7,30.04,ENE,60,0.0,0.0,80,0.00,,,0.00,WUHU216DAVISVP2,2013-06-20 03:55:00,
2013-06-19 23:00:00,72.9,67.1,30.04,ENE,60,0.0,0.0,82,0.00,,,0.00,WUHU216DAVISVP2,2013-06-20 04:00:00,
2013-06-19 23:01:00,72.9,67.1,30.04,ENE,60,0.0,0.0,82,0.00,,,0.00,WUHU216DAVISVP2,2013-06-20 04:01:00,
2013-06-19 23:06:00,72.6,67.1,30.04,ENE,70,0.0,0.0,83,0.00,,,0.00,WUHU216DAVISVP2,2013-06-20 04:06:00,
2013-06-19 23:11:00,72.3,67.2,30.04,ENE,71,0.0,0.0,84,0.00,,,0.00,WUHU216DAVISVP2,2013-06-20 04:11:00,
2013-06-19 23:16:00,72.4,66.7,30.04,ENE,71,0.0,0.0,82,0.00,,,0.00,WUHU216DAVISVP2,2013-06-20 04:16:00,
2013-06-19 23:21:00,72.8,67.1,30.04,ENE,74,0.0,0.0,82,0.00,,,0.00,WUHU216DAVISVP2,2013-06-20 04:21:00,
2013-06-19 23:26:00,73.1,66.7,30.05,ENE,73,0.0,0.0,80,0.00,,,0.00,WUHU216DAVISVP2,2013-06-20 04:26:00,
2013-06-19 23:31:00,73.0,67.2,30.05,ENE,74,0.0,0.0,82,0.00,,,0.00,WUHU216DAVISVP2,2013-06-20 04:31:00,
2013-06-19 23:36:00,72.6,67.2,30.05,ENE,74,0.0,0.0,83,0.00,,,0.00,WUHU216DAVISVP2,2013-06-20 04:36:00,
2013-06-19 23:41:00,72.5,67.1,30.05,East,84,0.0,0.0,83,0.00,,,0.00,WUHU216DAVISVP2,2013-06-20 04:41:00,
2013-06-19 23:46:00,72.4,66.9,30.05,East,84,0.0,0.0,83,0.00,,,0.00,WUHU216DAVISVP2,2013-06-20 04:46:00,
2013-06-19 23:51:00,72.3,66.6,30.05,East,84,0.0,0.0,82,0.00,,,0.00,WUHU216DAVISVP2,2013-06-20 04:51:00,
2013-06-19 23:56:00,72.6,66.5,30.05,East,84,0.0,0.0,81,0.00,,,0.00,WUHU216DAVISVP2,2013-06-20 04:56:00,